Weather History for Zanesville, OH

Change the Weather History Date:

Thursday, March 7, 2013

  Actual Average Record
Temperature  
Mean Temperature 36 °F 38 °F  
Max Temperature 42 °F 48 °F 77 °F (1983)
Min Temperature 30 °F 27 °F 3 °F (1960)
Degree Days  
Heating Degree Days 29 27  
Month to date heating degree days 240 198  
Since 1 July heating degree days 4371 4389  
Cooling Degree Days 0 0  
Month to date cooling degree days 0 0  
Year to date cooling degree days 0 0  
Moisture  
Dew Point 28 °F    
Average Humidity 74    
Maximum Humidity 92    
Minimum Humidity 55    
Precipitation  
Precipitation 0.00 in 0.09 in 0.61 in (1956)
Month to date precipitation 0.39 0.59  
Year to date precipitation 4.87 5.42  
Sea Level Pressure  
Sea Level Pressure 30.28 in    
Wind  
Wind Speed 7 mph (NW)    
Max Wind Speed 14 mph    
Max Gust Speed 18 mph    
Visibility 9 miles    
Events      
T = Trace of Precipitation, MM = Missing Value Source: NWS Daily Summary

Daily Weather History Graph

Daily Weather History Graph

Search for Another Location

Airport:

Trip Planner

Search our weather history database for the weather conditions in past years. The results will help you decide how hot, cold, wet, or windy it might be!

Date:

Astronomy

Mar. 07, 2013 Rise Set
Actual Time 6:51 AM EST 6:26 PM EST
Civil Twilight 6:24 AM EST 6:53 PM EST
Nautical Twilight 5:53 AM EST 7:24 PM EST
Astronomical Twilight 5:21 AM EST 7:56 PM EST
Moon 3:49 AM EST (3/7) 2:12 PM EST (3/7)
Length of Visible Light 12h 28m
Length of Day
11h 34m
Waning Crescent, 20% of the Moon is Illuminated
Mar 7
Waning Crescent
Mar 11
New
Mar 19
First Quarter
Mar 27
Full
Apr 3
Last Quarter

Hourly Weather History & Observations

Time (EST) Temp. Windchill Dew Point Humidity Pressure Visibility Wind Dir Wind Speed Gust Speed Precip Events Conditions
12:53 AM 34.0 °F 28.0 °F 30.0 °F 85% 30.17 in 8.0 mi WNW 6.9 mph - N/A   Overcast
1:53 AM 33.1 °F 28.7 °F 28.0 °F 82% 30.19 in 10.0 mi NW 4.6 mph - N/A   Mostly Cloudy
2:53 AM 30.9 °F 27.5 °F 27.0 °F 85% 30.20 in 10.0 mi WNW 3.5 mph - N/A   Clear
3:53 AM 30.9 °F 26.2 °F 27.0 °F 85% 30.21 in 10.0 mi West 4.6 mph - N/A   Overcast
4:53 AM 30.9 °F 27.5 °F 28.0 °F 89% 30.22 in 6.0 mi West 3.5 mph - N/A   Overcast
5:53 AM 30.9 °F 27.5 °F 28.0 °F 89% 30.23 in 6.0 mi West 3.5 mph - N/A   Overcast
6:53 AM 30.9 °F 26.2 °F 28.0 °F 89% 30.26 in 5.0 mi West 4.6 mph - N/A   Overcast
7:53 AM 32.0 °F 27.5 °F 28.0 °F 85% 30.28 in 4.0 mi West 4.6 mph - N/A   Overcast
8:53 AM 32.0 °F 25.6 °F 28.0 °F 85% 30.30 in 5.0 mi West 6.9 mph - N/A   Overcast
9:53 AM 34.0 °F 26.6 °F 28.0 °F 79% 30.30 in 7.0 mi WNW 9.2 mph - N/A   Overcast
10:53 AM 37.9 °F 31.5 °F 30.0 °F 73% 30.30 in 9.0 mi NW 9.2 mph - N/A   Overcast
11:53 AM 39.0 °F 31.8 °F 28.9 °F 67% 30.30 in 10.0 mi NNW 11.5 mph 16.1 mph N/A   Mostly Cloudy
12:53 PM 39.9 °F 33.4 °F 26.1 °F 58% 30.29 in 10.0 mi WNW 10.4 mph - N/A   Overcast
1:53 PM 39.0 °F 33.4 °F 27.0 °F 62% 30.28 in 10.0 mi West 8.1 mph - N/A   Overcast
2:53 PM 39.9 °F 34.5 °F 28.0 °F 63% 30.28 in 10.0 mi WNW 8.1 mph - N/A   Overcast
3:53 PM 41.0 °F 36.4 °F 28.0 °F 60% 30.27 in 10.0 mi NW 6.9 mph - N/A   Overcast
4:53 PM 41.0 °F 36.4 °F 27.0 °F 57% 30.29 in 10.0 mi WNW 6.9 mph - N/A   Overcast
5:53 PM 39.9 °F 34.5 °F 28.0 °F 63% 30.30 in 10.0 mi NW 8.1 mph - N/A   Overcast
6:53 PM 37.9 °F 31.5 °F 28.0 °F 68% 30.31 in 10.0 mi NW 9.2 mph - N/A   Overcast
7:53 PM 37.0 °F 30.4 °F 28.9 °F 73% 30.33 in 10.0 mi NNW 9.2 mph - N/A   Overcast
8:26 PM 37.4 °F 30.3 °F 30.2 °F 75% 30.30 in 10.0 mi NW 10.4 mph - N/A   Overcast
8:53 PM 36.0 °F 30.3 °F 28.9 °F 76% 30.35 in 10.0 mi NNW 6.9 mph - N/A   Overcast
9:53 PM 35.1 °F 28.6 °F 28.9 °F 78% 30.34 in 10.0 mi NNW 8.1 mph - N/A   Overcast
10:53 PM 34.0 °F 28.0 °F 28.9 °F 82% 30.35 in 10.0 mi NNW 6.9 mph - N/A   Overcast
11:30 PM 33.8 °F 29.6 °F 28.4 °F 81% 30.32 in 10.0 mi NNW 4.6 mph - N/A   Overcast
11:53 PM 34.0 °F 29.8 °F 28.9 °F 82% 30.35 in 10.0 mi NNW 4.6 mph - N/A   Overcast